EW8780 Weather Reports


Display with metric or nautical units.
time (UTC)temp
F
wind
direction
speed
MPH
gust
MPH
rain 1hr
in
rain 24hr
in
rain mn
in
humidity
%
barometer
mb
20260507220039 56 211 2.0 5.0 0.00 0.00 0.00 86 1016.7
20260507214557 56 217 3.0 6.0 0.00 0.00 0.00 86 1016.7
20260507213040 57 211 2.0 7.0 0.00 0.00 0.00 87 1016.7
20260507211538 57 212 3.0 6.0 0.00 0.00 0.00 87 1016.5
20260507210049 57 188 2.0 5.0 0.00 0.00 0.00 86 1016.6
20260507204537 57 200 2.0 5.0 0.00 0.00 0.00 87 1016.7
20260507203046 57 198 3.0 8.0 0.00 0.00 0.00 86 1016.6
20260507201542 57 208 2.0 6.0 0.00 0.00 0.00 85 1016.4
20260507200037 58 231 3.0 7.0 0.00 0.00 0.00 84 1016.3
20260507194559 58 175 3.0 7.0 0.00 0.00 0.00 85 1016.3
20260507193034 58 209 3.0 8.0 0.00 0.00 0.00 86 1016.2
20260507191532 59 205 3.0 6.0 0.00 0.00 0.00 86 1016.1
20260507190030 58 209 3.0 6.0 0.00 0.00 0.00 85 1016.1
20260507184530 58 221 1.0 4.0 0.00 0.00 0.00 86 1016.3
20260507183034 57 206 1.0 3.0 0.00 0.00 0.00 85 1016.4
20260507181526 57 213 1.0 4.0 0.00 0.00 0.00 86 1016.4
20260507180031 57 209 1.0 4.0 0.00 0.00 0.00 86 1016.5
20260507174534 58 200 0.0 4.0 0.00 0.00 0.00 86 1016.5
20260507173031 56 206 1.0 3.0 0.00 0.00 0.00 87 1016.4
20260507171519 55 193 0.0 2.0 0.00 0.00 0.00 87 1016.5
20260507170019 55 193 0.0 1.0 0.00 0.00 0.00 88 1016.4
20260507164517 55 193 0.0 3.0 0.00 0.00 0.00 89 1016.4
20260507163014 54 164 0.0 2.0 0.00 0.00 0.00 89 1016.4
20260507161511 54 163 0.0 0.0 0.00 0.00 0.00 89 1016.4
20260507160013 54 163 0.0 0.0 0.00 0.00 0.00 90 1016.5
20260507154509 53 163 0.0 1.0 0.00 0.00 0.00 90 1016.5
20260507153004 53 199 0.0 2.0 0.00 0.00 0.00 90 1016.5
20260507151600 53 145 0.0 0.0 0.00 0.00 0.00 90 1016.4
20260507150059 52 145 0.0 0.0 0.00 0.00 0.00 92 1016.2
20260507144553 52 145 0.0 0.0 0.00 0.00 0.00 93 1016.1
20260507143058 52 144 0.0 0.0 0.00 0.00 0.00 93 1016.2
20260507141551 51 175 0.0 0.0 0.00 0.00 0.00 94 1016.1
20260507140048 51 177 0.0 0.0 0.00 0.00 0.00 94 1016.1
20260507134547 51 177 0.0 0.0 0.00 0.00 0.00 94 1016.1
20260507133047 51 179 0.0 0.0 0.00 0.00 0.00 94 1016.1
20260507131608 51 179 0.0 0.0 0.00 0.00 0.00 94 1016.1
20260507130044 51 179 0.0 0.0 0.00 0.00 0.00 94 1016.0
20260507124545 50 179 0.0 0.0 0.00 0.00 0.00 93 1016.0
20260507123044 51 179 0.0 0.0 0.00 0.00 0.00 93 1016.0
20260507121543 51 179 0.0 0.0 0.00 0.00 0.00 93 1016.0
20260507120041 51 179 0.0 0.0 0.00 0.00 0.00 94 1016.0
20260507114541 51 179 0.0 0.0 0.00 0.02 0.00 94 1016.1
20260507113037 51 179 0.0 0.0 0.00 0.02 0.00 94 1016.3
20260507111536 51 179 0.0 0.0 0.00 0.02 0.00 94 1016.4
20260507110035 51 179 0.0 0.0 0.00 0.02 0.00 94 1016.5
20260507104538 51 179 0.0 0.0 0.00 0.02 0.00 94 1016.6
20260507103034 51 179 0.0 0.0 0.00 0.02 0.00 94 1016.6
20260507101531 52 179 0.0 0.0 0.00 0.02 0.00 94 1016.6
20260507100034 52 179 0.0 0.0 0.00 0.02 0.00 94 1016.6
20260507094528 52 179 0.0 0.0 0.00 0.02 0.00 94 1016.8
20260507093026 52 179 0.0 0.0 0.00 0.02 0.00 94 1016.9
20260507091527 52 179 0.0 0.0 0.00 0.02 0.00 94 1017.2
20260507090023 52 179 0.0 0.0 0.00 0.02 0.00 93 1017.3
20260507084523 52 179 0.0 0.0 0.00 0.02 0.00 93 1017.3
20260507083022 52 179 0.0 0.0 0.00 0.02 0.00 93 1017.2
20260507081519 52 179 0.0 0.0 0.00 0.02 0.00 93 1017.3
20260507080018 52 179 0.0 0.0 0.00 0.02 0.00 93 1017.3
20260507074518 52 179 0.0 0.0 0.00 0.02 0.00 93 1017.4
20260507073016 52 179 0.0 0.0 0.00 0.02 0.00 93 1017.4
20260507071539 52 179 0.0 0.0 0.00 0.02 0.00 93 1017.5
20260507070014 53 179 0.0 0.0 0.00 0.02 0.00 93 1017.6
20260507064515 53 179 0.0 0.0 0.00 0.02 0.02 93 1017.6
20260507063012 53 179 0.0 0.0 0.00 0.02 0.02 92 1017.7
20260507061511 53 179 0.0 0.0 0.00 0.02 0.02 92 1017.8
20260507060011 53 179 0.0 0.0 0.00 0.02 0.02 92 1017.8
20260507054511 53 179 0.0 0.0 0.00 0.02 0.02 92 1017.9
20260507053013 53 179 0.0 0.0 0.00 0.02 0.02 92 1017.9
20260507051516 53 179 0.0 0.0 0.00 0.02 0.02 93 1018.1
20260507050012 53 179 0.0 0.0 0.00 0.02 0.02 93 1018.0
20260507044508 53 179 0.0 0.0 0.00 0.02 0.02 93 1018.0
20260507043011 53 179 0.0 0.0 0.00 0.02 0.02 93 1018.2
20260507041507 53 179 0.0 0.0 0.00 0.02 0.02 93 1018.2
20260507040007 53 179 0.0 0.0 0.00 0.02 0.02 92 1018.1
20260507034514 53 179 0.0 0.0 0.00 0.02 0.02 92 1017.9
20260507033014 53 179 0.0 0.0 0.00 0.02 0.02 92 1018.0
20260507031505 54 179 0.0 0.0 0.00 0.02 0.02 91 1018.0
20260507030004 54 179 0.0 2.0 0.00 0.02 0.02 91 1018.0
20260507024505 54 179 1.0 3.0 0.00 0.02 0.02 90 1018.2
20260507023011 54 76 0.0 3.0 0.00 0.02 0.02 89 1018.3
20260507021503 55 217 0.0 3.0 0.00 0.02 0.02 88 1018.3
20260507020006 55 188 0.0 2.0 0.00 0.02 0.02 86 1018.4
20260507014503 56 62 0.0 2.0 0.00 0.02 0.02 86 1018.3
20260507013002 57 63 0.0 2.0 0.00 0.02 0.02 85 1018.5
20260507011504 57 132 0.0 2.0 0.00 0.02 0.02 83 1018.5
20260507010003 57 51 0.0 4.0 0.00 0.02 0.02 82 1018.6
20260507004501 58 176 0.0 3.0 0.00 0.02 0.02 82 1018.7
20260507003102 58 163 0.0 5.0 0.00 0.02 0.02 81 1018.6
20260507001559 58 191 0.0 4.0 0.00 0.02 0.02 82 1018.7
20260507000059 58 215 2.0 7.0 0.00 0.02 0.02 82 1018.8
20260506234559 58 210 3.0 7.0 0.00 0.02 0.02 80 1018.7
20260506233059 59 217 1.0 9.0 0.00 0.02 0.02 81 1018.7
20260506231558 60 217 2.0 7.0 0.00 0.02 0.02 81 1018.8
20260506230055 59 213 3.0 8.0 0.00 0.02 0.02 79 1018.8
20260506224554 60 214 4.0 8.0 0.00 0.02 0.02 82 1018.9
20260506223053 59 230 3.0 7.0 0.00 0.02 0.02 81 1019.0
20260506221551 59 205 4.0 6.0 0.00 0.02 0.02 80 1019.2